CW9476 Weather Reports


time (UTC)temp
C
wind
direction
speed
KPH
gust
KPH
rain 1hr
cm
rain 24hr
cm
rain mn
cm
humidity
%
barometer
mb
20260506162618 15 210 0.0 11.3 0.15 0.36 0.36 91 1007.7
20260506161618 15 142 1.6 9.7 0.15 0.33 0.33 91 1007.9
20260506161118 15 189 4.8 9.7 0.15 0.30 0.30 91 1007.9
20260506160618 15 198 4.8 6.4 0.15 0.30 0.30 91 1008.0
20260506160118 15 234 1.6 6.4 0.13 0.28 0.28 91 1008.1
20260506155618 15 215 1.6 9.7 0.13 0.25 0.25 91 1008.4
20260506155118 15 217 3.2 11.3 0.13 0.25 0.25 91 1008.5
20260506154618 15 194 3.2 11.3 0.10 0.20 0.20 90 1008.6
20260506154118 15 182 3.2 4.8 0.10 0.20 0.20 91 1008.6
20260506153118 15 214 0.0 9.7 0.13 0.20 0.20 90 1008.3
20260506152618 15 186 3.2 8.0 0.13 0.20 0.20 90 1008.3
20260506152118 15 191 6.4 8.0 0.13 0.18 0.18 90 1008.4
20260506151618 15 200 1.6 6.4 0.13 0.18 0.18 89 1008.4
20260506151118 15 192 4.8 6.4 0.10 0.15 0.15 89 1008.5
20260506150617 15 237 1.6 4.8 0.13 0.15 0.15 89 1008.4
20260506150118 15 220 1.6 4.8 0.13 0.15 0.15 89 1008.4
20260506145118 16 217 4.8 6.4 0.10 0.13 0.13 88 1008.7
20260506144617 16 184 0.0 4.8 0.10 0.10 0.10 88 1008.8
20260506144118 16 219 0.0 4.8 0.10 0.10 0.10 88 1008.7
20260506143617 16 194 1.6 4.8 0.10 0.10 0.10 87 1009.0
20260506143118 16 194 1.6 4.8 0.08 0.08 0.08 87 1009.0
20260506142617 16 194 0.0 4.8 0.08 0.08 0.08 87 1008.9
20260506142117 16 187 1.6 4.8 0.05 0.05 0.05 87 1008.9
20260506140117 16 166 0.0 4.8 0.03 0.03 0.03 86 1009.0
20260506135617 16 166 0.0 4.8 0.03 0.03 0.03 86 1009.2
20260506135117 16 216 4.8 4.8 0.03 0.03 0.03 85 1009.3
20260506134617 16 171 0.0 6.4 0.00 0.00 0.00 85 1009.3
20260506133617 16 200 0.0 4.8 0.00 0.00 0.00 85 1009.3
20260506133117 16 176 3.2 4.8 0.00 0.00 0.00 85 1009.4
20260506132617 16 245 0.0 4.8 0.00 0.00 0.00 85 1009.5
20260506132117 16 221 0.0 4.8 0.00 0.00 0.00 85 1009.4
20260506131617 16 200 0.0 4.8 0.00 0.00 0.00 84 1009.2
20260506130617 16 261 3.2 9.7 0.00 0.00 0.00 84 1009.2
20260506130117 16 248 1.6 9.7 0.00 0.00 0.00 84 1009.0
20260506125617 16 159 9.7 9.7 0.00 0.00 0.00 84 1009.0
20260506125116 16 219 1.6 8.0 0.00 0.00 0.00 84 1008.8
20260506124616 16 217 0.0 8.0 0.00 0.00 0.00 83 1008.9
20260506124116 16 203 0.0 8.0 0.00 0.00 0.00 83 1009.0
20260506123616 16 262 1.6 8.0 0.00 0.00 0.00 83 1009.0
20260506123116 16 311 3.2 12.9 0.00 0.00 0.00 82 1009.2
20260506122616 16 234 1.6 12.9 0.00 0.00 0.00 82 1009.3
20260506121616 16 217 3.2 6.4 0.00 0.00 0.00 81 1009.2
20260506121116 16 250 0.0 4.8 0.00 0.00 0.00 81 1009.4
20260506120616 16 165 0.0 6.4 0.00 0.00 0.00 80 1009.5
20260506120116 16 198 1.6 8.0 0.00 0.00 0.00 80 1009.3
20260506115116 16 224 1.6 6.4 0.00 0.00 0.00 80 1009.3
20260506114116 16 185 0.0 8.0 0.00 0.00 0.00 79 1009.4
20260506113616 16 249 3.2 8.0 0.00 0.00 0.00 79 1009.4
20260506112616 16 214 1.6 8.0 0.00 0.00 0.00 79 1009.5
20260506112116 16 167 1.6 8.0 0.00 0.00 0.00 79 1009.5
20260506111616 16 196 1.6 8.0 0.00 0.00 0.00 79 1009.5
20260506110616 16 224 1.6 8.0 0.00 0.00 0.00 79 1009.1
20260506110116 16 180 1.6 8.0 0.00 0.00 0.00 79 1008.9
20260506105616 16 254 3.2 6.4 0.00 0.00 0.00 78 1008.9
20260506105116 16 207 0.0 8.0 0.00 0.00 0.00 78 1009.0
20260506104116 16 88 3.2 11.3 0.00 0.00 0.00 78 1008.9
20260506103616 16 184 1.6 11.3 0.00 0.00 0.00 77 1008.8
20260506103115 16 190 3.2 3.2 0.00 0.00 0.00 77 1008.9
20260506102615 16 142 1.6 4.8 0.00 0.00 0.00 77 1009.0
20260506102116 16 219 0.0 4.8 0.00 0.00 0.00 76 1009.0
20260506101615 16 213 1.6 4.8 0.00 0.00 0.00 76 1009.1
20260506101115 16 238 3.2 9.7 0.00 0.00 0.00 76 1009.3
20260506100616 16 229 1.6 9.7 0.00 0.00 0.00 76 1009.1
20260506095615 16 298 4.8 8.0 0.00 0.00 0.00 75 1009.2
20260506095116 16 243 3.2 8.0 0.00 0.00 0.00 75 1009.2
20260506094615 16 206 0.0 6.4 0.00 0.00 0.00 75 1009.2
20260506094115 16 207 3.2 6.4 0.00 0.00 0.00 74 1009.1
20260506093615 16 211 4.8 6.4 0.00 0.00 0.00 74 1009.0
20260506090616 16 177 3.2 6.4 0.00 0.00 0.00 72 1009.3
20260506090115 16 202 3.2 6.4 0.00 0.00 0.00 72 1009.3
20260506085615 16 237 3.2 8.0 0.00 0.00 0.00 72 1009.5
20260506085115 16 207 3.2 8.0 0.00 0.00 0.00 71 1009.3
20260506084615 16 219 0.0 3.2 0.00 0.00 0.00 71 1009.4
20260506084115 16 193 1.6 3.2 0.00 0.00 0.00 71 1009.3
20260506083615 16 217 1.6 4.8 0.00 0.00 0.00 71 1009.3
20260506083115 16 190 1.6 4.8 0.00 0.00 0.00 70 1009.3
20260506082615 16 209 1.6 6.4 0.00 0.00 0.00 70 1009.3
20260506082115 16 215 1.6 6.4 0.00 0.00 0.00 70 1009.3
20260506081615 16 201 1.6 4.8 0.00 0.00 0.00 70 1009.3
20260506081115 17 215 0.0 4.8 0.00 0.00 0.00 69 1009.4
20260506080615 17 190 0.0 4.8 0.00 0.00 0.00 69 1009.4
20260506080115 17 221 1.6 6.4 0.00 0.00 0.00 69 1009.4
20260506073114 17 339 1.6 4.8 0.00 0.00 0.00 67 1009.8
20260506072614 17 220 0.0 3.2 0.00 0.00 0.00 67 1009.8
20260506072114 17 177 0.0 3.2 0.00 0.00 0.00 66 1009.8
20260506071614 17 211 0.0 4.8 0.00 0.00 0.00 66 1009.8
20260506071114 17 211 1.6 4.8 0.00 0.00 0.00 66 1009.9
20260506070614 17 215 0.0 6.4 0.00 0.00 0.00 66 1009.9
20260506062114 18 242 0.0 9.7 0.00 0.00 0.00 63 1010.4
20260506061614 18 154 3.2 9.7 0.00 0.00 0.00 63 1010.4
20260506061114 18 178 1.6 6.4 0.00 0.00 0.00 63 1010.4
20260506060614 18 229 3.2 12.9 0.00 0.00 0.00 63 1010.5
20260506060114 18 209 6.4 12.9 0.00 0.00 0.00 63 1010.4
20260506051114 18 190 0.0 6.4 0.00 0.00 0.00 60 1010.8
20260506050114 18 230 6.4 8.0 0.00 0.00 0.00 59 1010.8
20260506045113 18 225 0.0 8.0 0.00 0.00 0.00 59 1010.8
20260506044613 19 331 1.6 8.0 0.00 0.00 0.00 58 1010.8
20260506044114 19 204 3.2 8.0 0.00 0.00 0.00 58 1010.8
20260506043613 19 209 6.4 8.0 0.00 0.00 0.00 58 1010.8
20260506042613 19 207 1.6 6.4 0.00 0.00 0.00 58 1010.9
20260506042113 19 185 3.2 8.0 0.00 0.00 0.00 57 1010.8
20260506041614 19 215 3.2 8.0 0.00 0.00 0.00 57 1010.8
20260506041114 19 180 1.6 6.4 0.00 0.00 0.00 57 1010.8
20260506040613 19 69 0.0 4.8 0.00 0.00 0.00 56 1010.8
20260506040113 19 250 1.6 6.4 0.00 0.00 0.00 56 1010.7
20260506034613 19 238 1.6 6.4 0.00 0.00 0.00 56 1010.7
20260506034113 19 253 3.2 8.0 0.00 0.00 0.00 56 1010.6
20260506033613 20 272 4.8 8.0 0.00 0.00 0.00 55 1010.7
20260506033113 20 204 0.0 6.4 0.00 0.00 0.00 55 1010.8
20260506032613 20 235 0.0 6.4 0.00 0.00 0.00 55 1010.7
20260506032113 20 241 1.6 8.0 0.00 0.00 0.00 55 1010.7
20260506031613 20 233 4.8 11.3 0.00 0.00 0.00 54 1010.7
20260506031113 20 131 8.0 11.3 0.00 0.00 0.00 54 1010.8
20260506030613 20 223 1.6 8.0 0.00 0.00 0.00 54 1010.9
20260506030113 20 221 1.6 9.7 0.00 0.00 0.00 53 1010.7
20260506025613 20 302 1.6 9.7 0.00 0.00 0.00 53 1010.8
20260506025113 20 36 3.2 9.7 0.00 0.00 0.00 53 1010.7
20260506023613 21 227 1.6 8.0 0.00 0.00 0.00 51 1010.8
20260506023113 21 217 4.8 6.4 0.00 0.00 0.00 50 1010.8
20260506022613 21 183 4.8 6.4 0.00 0.00 0.00 49 1010.8
20260506021613 21 207 0.0 9.7 0.00 0.00 0.00 48 1010.9
20260506021113 21 254 3.2 9.7 0.00 0.00 0.00 48 1010.9
20260506020613 21 217 3.2 9.7 0.00 0.00 0.00 48 1010.9
20260506020113 21 208 3.2 9.7 0.00 0.00 0.00 48 1010.9
20260506015612 21 233 1.6 11.3 0.00 0.00 0.00 47 1010.5
20260506015113 21 236 1.6 11.3 0.00 0.00 0.00 47 1010.6
20260506014613 21 202 6.4 6.4 0.00 0.00 0.00 47 1010.5
20260506014112 21 211 3.2 6.4 0.00 0.00 0.00 47 1010.5
20260506013613 21 211 1.6 6.4 0.00 0.00 0.00 46 1010.4
20260506013112 22 209 1.6 8.0 0.00 0.00 0.00 46 1010.6
20260506012612 22 205 0.0 8.0 0.00 0.00 0.00 47 1010.4
20260506012112 22 244 1.6 8.0 0.00 0.00 0.00 46 1010.3
20260506011612 22 205 6.4 16.1 0.00 0.00 0.00 46 1010.2
20260506011112 22 252 3.2 16.1 0.00 0.00 0.00 46 1010.1
20260506010612 22 194 1.6 16.1 0.00 0.00 0.00 45 1010.1
20260506010112 22 219 6.4 11.3 0.00 0.00 0.00 46 1010.1
20260506005612 22 268 1.6 4.8 0.00 0.00 0.00 46 1009.9
20260506005112 22 210 1.6 6.4 0.00 0.00 0.00 46 1009.7
20260506004612 22 215 1.6 6.4 0.00 0.00 0.00 45 1009.7
20260506004112 22 257 0.0 6.4 0.00 0.00 0.00 45 1009.6
20260506003612 22 78 3.2 20.9 0.00 0.00 0.00 45 1009.5
20260506002612 22 221 8.0 8.0 0.00 0.00 0.00 46 1009.5
20260506002112 22 151 1.6 8.0 0.00 0.00 0.00 46 1009.5
20260506001612 22 252 0.0 17.7 0.00 0.00 0.00 45 1009.5
20260506001112 22 86 3.2 17.7 0.00 0.00 0.00 46 1009.5
20260506000612 22 215 4.8 11.3 0.00 0.00 0.00 45 1009.5
20260506000112 22 238 1.6 6.4 0.00 0.00 0.00 46 1009.5
20260505235612 22 181 1.6 8.0 0.00 0.00 0.00 46 1009.4
20260505235112 22 250 1.6 8.0 0.00 0.00 0.00 45 1009.3
20260505234612 22 223 1.6 6.4 0.00 0.00 0.00 45 1009.3
20260505234112 22 213 1.6 8.0 0.00 0.00 0.00 45 1009.2
20260505233112 23 227 4.8 8.0 0.00 0.00 0.00 44 1009.3
20260505232612 23 223 3.2 8.0 0.00 0.00 0.00 45 1009.4
20260505232111 23 194 1.6 8.0 0.00 0.00 0.00 44 1009.3
20260505231611 23 200 1.6 8.0 0.00 0.00 0.00 44 1009.3
20260505231112 23 244 0.0 8.0 0.00 0.00 0.00 44 1009.3
20260505230611 23 230 4.8 8.0 0.00 0.00 0.00 43 1009.0
20260505225611 23 190 3.2 9.7 0.00 0.00 0.00 43 1008.9
20260505225111 23 211 1.6 9.7 0.00 0.00 0.00 42 1009.0
20260505224611 23 205 3.2 9.7 0.00 0.00 0.00 42 1008.9
20260505223611 23 174 4.8 14.5 0.00 0.00 0.00 41 1008.7
20260505223111 23 219 1.6 11.3 0.00 0.00 0.00 41 1008.8
20260505222611 23 171 9.7 12.9 0.00 0.00 0.00 42 1008.8
20260505222111 23 273 3.2 12.9 0.00 0.00 0.00 41 1008.7
20260505221111 24 226 11.3 20.9 0.00 0.00 0.00 41 1008.8
20260505220611 24 291 1.6 16.1 0.00 0.00 0.00 41 1008.8
20260505220111 24 237 6.4 14.5 0.00 0.00 0.00 41 1008.7
20260505215611 24 247 8.0 11.3 0.00 0.00 0.00 41 1008.6
20260505215111 24 254 1.6 11.3 0.00 0.00 0.00 41 1008.7
20260505214611 25 268 1.6 14.5 0.00 0.00 0.00 40 1008.7
20260505214111 25 196 6.4 17.7 0.00 0.00 0.00 39 1008.6
20260505213611 25 109 6.4 17.7 0.00 0.00 0.00 39 1008.4
20260505213111 25 331 1.6 11.3 0.00 0.00 0.00 39 1008.2
20260505212611 25 241 0.0 8.0 0.00 0.00 0.00 36 1008.2
20260505211611 25 292 4.8 14.5 0.00 0.00 0.00 34 1008.1
20260505211111 25 250 3.2 14.5 0.00 0.00 0.00 34 1008.1
20260505210611 25 115 3.2 16.1 0.00 0.00 0.00 33 1008.0
20260505210111 25 258 4.8 16.1 0.00 0.00 0.00 33 1008.1
20260505205610 25 155 3.2 16.1 0.00 0.00 0.00 32 1008.0
20260505205111 25 222 4.8 17.7 0.00 0.00 0.00 32 1008.0
20260505204611 25 248 6.4 17.7 0.00 0.00 0.00 33 1007.9
20260505204110 25 203 8.0 20.9 0.00 0.00 0.00 32 1008.1
20260505203610 25 219 8.0 20.9 0.00 0.00 0.00 33 1008.1
20260505203110 25 211 20.9 20.9 0.00 0.00 0.00 33 1008.1
20260505202610 26 215 8.0 20.9 0.00 0.00 0.00 32 1008.0
20260505202110 26 360 6.4 20.9 0.00 0.00 0.00 31 1008.0
20260505201610 26 224 3.2 12.9 0.00 0.00 0.00 32 1007.9
20260505201110 26 67 1.6 14.5 0.00 0.00 0.00 32 1008.1
20260505200610 26 257 3.2 19.3 0.00 0.00 0.00 31 1008.3
20260505195610 26 107 3.2 16.1 0.00 0.00 0.00 32 1008.3
20260505194610 26 137 4.8 17.7 0.00 0.00 0.00 31 1008.6
20260505193610 27 226 4.8 19.3 0.00 0.00 0.00 31 1008.8
20260505193110 26 294 6.4 19.3 0.00 0.00 0.00 33 1008.8
20260505192610 26 242 4.8 17.7 0.00 0.00 0.00 32 1008.7
20260505192110 26 323 16.1 17.7 0.00 0.00 0.00 31 1008.7
20260505191610 26 174 1.6 14.5 0.00 0.00 0.00 34 1008.6
20260505191110 26 173 4.8 14.5 0.00 0.00 0.00 35 1008.6
20260505190610 26 282 9.7 14.5 0.00 0.00 0.00 35 1008.8
20260505190110 26 217 12.9 14.5 0.00 0.00 0.00 34 1009.0
20260505185610 26 215 8.0 14.5 0.00 0.00 0.00 35 1008.9
20260505185110 26 213 6.4 16.1 0.00 0.00 0.00 35 1008.9
20260505184610 26 210 9.7 16.1 0.00 0.00 0.00 36 1009.0
20260505182610 26 46 6.4 16.1 0.00 0.00 0.00 35 1009.5
20260505182110 26 149 9.7 19.3 0.00 0.00 0.00 35 1009.4
20260505181610 26 218 9.7 24.1 0.00 0.00 0.00 36 1009.4
20260505181109 26 165 3.2 24.1 0.00 0.00 0.00 36 1009.4
20260505180610 26 257 4.8 14.5 0.00 0.00 0.00 38 1009.6
20260505180109 26 306 3.2 14.5 0.00 0.00 0.00 38 1009.5
20260505175109 26 246 8.0 22.5 0.00 0.00 0.00 38 1009.7
20260505174609 26 240 4.8 16.1 0.00 0.00 0.00 39 1009.6
20260505174109 26 254 6.4 16.1 0.00 0.00 0.00 39 1009.5
20260505173609 26 219 4.8 16.1 0.00 0.00 0.00 38 1009.6
20260505173109 26 156 3.2 14.5 0.00 0.00 0.00 41 1009.7
20260505172609 26 167 8.0 14.5 0.00 0.00 0.00 41 1009.8
20260505172109 26 273 3.2 12.9 0.00 0.00 0.00 40 1009.7
20260505171609 26 252 6.4 16.1 0.00 0.00 0.00 40 1009.7
20260505171109 26 302 3.2 16.1 0.00 0.00 0.00 39 1009.9
20260505170609 26 320 8.0 17.7 0.00 0.00 0.00 39 1009.8
20260505170109 26 217 4.8 17.7 0.00 0.00 0.00 40 1009.8
20260505165109 26 263 4.8 9.7 0.00 0.00 0.00 42 1010.1
20260505164609 26 178 1.6 14.5 0.00 0.00 0.00 43 1010.1
20260505164109 26 269 3.2 14.5 0.00 0.00 0.00 43 1010.1
20260505163109 25 220 4.8 12.9 0.00 0.00 0.00 44 1010.4